Location: Caltech
(34.1382°N, 118.1253°W)
Time: 18:09:51
(UTC-08:00)

FO-29 - Visible Passes

Search period start: 22 February 2018 00:00
Search period end: 04 March 2018 00:00
Orbit: 800 x 1322 km, 98.5° (Epoch: 21 February)

Date Brightness Start Highest point End Pass type
(mag) Time Alt. Az. Time Alt. Az. Time Alt. Az.
22 Feb 11.3 18:07:08 10° E 18:07:55 10° E 18:08:42 10° E visible
22 Feb 9.6 19:47:02 10° NNE 19:53:20 84° ESE 20:00:29 10° SSW visible
22 Feb 12.2 21:34:41 10° NW 21:37:49 14° WNW 21:41:06 10° W visible
23 Feb 11.8 05:58:22 10° ESE 06:01:59 19° ENE 06:05:34 10° NNE visible
23 Feb 10.4 18:52:40 10° NE 18:58:17 31° E 19:04:26 10° SSE visible
23 Feb 10.8 20:37:27 10° N 20:43:15 40° WNW 20:49:44 10° SW visible
24 Feb 9.6 19:41:58 10° NNE 19:48:23 78° ESE 19:55:38 10° S visible
24 Feb 12.1 21:29:15 10° NNW 21:32:53 16° WNW 21:36:45 10° W visible
25 Feb 11.8 05:53:36 10° ESE 05:56:58 18° ENE 06:00:18 10° NNE visible
25 Feb 10.5 18:47:43 10° NE 18:53:19 29° E 18:59:25 10° SSE visible
25 Feb 10.7 20:32:18 10° N 20:38:19 43° WNW 20:45:01 10° SW visible
26 Feb 9.7 19:36:54 10° NNE 19:43:26 73° ESE 19:50:47 10° S visible
26 Feb 12.0 21:23:53 10° NNW 21:27:58 18° WNW 21:32:19 10° WSW visible
27 Feb 11.9 05:48:52 10° ESE 05:51:57 16° ENE 05:55:02 10° NNE visible
27 Feb 10.6 18:42:46 10° NE 18:48:21 28° E 18:54:24 10° SSE visible
27 Feb 10.6 20:27:10 10° N 20:33:23 47° WNW 20:40:18 10° SW visible
28 Feb 9.7 19:31:52 10° NNE 19:38:30 69° ESE 19:45:55 10° S visible
28 Feb 12.0 21:18:35 10° NNW 21:23:03 19° WNW 21:27:50 10° WSW visible
01 Mar 12.0 05:44:10 10° E 05:46:56 15° ENE 05:49:45 10° NNE visible
01 Mar 10.7 18:37:51 10° NE 18:43:24 26° E 18:49:22 10° SSE visible
01 Mar 10.5 20:22:04 10° N 20:28:27 51° WNW 20:35:34 10° SW visible
02 Mar 9.8 19:26:51 10° NNE 19:33:34 65° ESE 19:41:03 10° S visible
02 Mar 11.9 21:13:19 10° NNW 21:18:09 21° WNW 21:23:20 10° WSW visible
03 Mar 12.1 05:39:30 10° E 05:41:57 13° ENE 05:44:25 10° NE visible
03 Mar 10.8 18:32:57 10° NE 18:38:27 25° E 18:44:19 10° SSE visible
03 Mar 10.5 20:16:58 10° N 20:23:32 55° WNW 20:30:50 10° SSW visible
